THOR ABLESTAR DEB, 132

Orbit data source: Space-Track

THOR ABLESTAR DEB, 132 is space debris in LEO originally from a launch on Thu, 29 Jun 1961 UTC launched from the Air Force Eastern Test Range (AFETR). Debris objects in space refer to the collection of defunct objects orbiting the Earth. Examples of debris include non-operational satellites, rocket bodies, and fragments generated from explosions, collisions, or faulty payload assembly.

Loading next visibility...
THOR ABLESTAR DEB details
Identifier
132, 1961-015S
Orbit
LEO
Last TLE update15 hours ago
Origin
Flag of USUSN BuWeps (US)
ManufacturerUnknown
MissionSpacecraft
Bus & MotorUnknown
MassUnknown
Launch date (UTC)
1961-06-29 (64 years ago)
Launch vehicleUnknown
Launch site
Air Force Eastern Test Range (AFETR)
Object type
Payload
Rocket body
Debris
Shape & HBRUnknown
Radar Cross SectionMedium (>0.1 m² and <1 m²)

Expand to show TLE details & history

TLE from 15 hours ago
0 THOR ABLESTAR DEB
1 00132U 61015S   25014.55829348  .00000076  00000-0  11259-3 0  9999
2 00132  66.6590 173.7686 0074970 185.1931 174.8380 13.94649518231347
Epoch: 2025-01-14T13:23Z
Definitive object data (Epoch: 2025-01-14T13:23:56.556Z)
Latitude-0.00002°
Longitude-141.48032°
Altitude968.896 km
Speed7.34 km/s
True Right ascension11h 35m 04s
True Declination0° 00' 00"
Sunlit
Object was in full shadow at TLE epoch
Visualization TLE readout
Latitude-50.01475°
Longitude-173.8341°
Altitude957.056 km
Speed7.359 km/s
Apparent Right ascension13h 27m 48s
Apparent Declination-62° 43' 04"
Sunlit
Object is in daylight
Visualization observer readout
Local Sidereal Time05:16:02
Azimuth143.598° SSE
Elevation-49.594°
Doppler factor1
Orbital elements
Apogee altitude965.434 km
Perigee altitude856.144 km
Semi-major axis7,288.926 km
Eccentricity0.007497
Inclination66.659°
RAAN173.7686°
Arg. of periapsis185.1931°
True anomaly174.91458°
Mean anomaly174.838°
Eccentric anomaly174.87636°
Mean motion3.48777 °/min
BSTAR0.00011259
Orbital period103.22 mins
Loading maneuver chart data...

THOR ABLESTAR DEB Visibility forecast

Observer location: undefined°, undefined

Span
Click to sort rows by Start time (UTC) header in descending order
Start Az.
Max El. time (UTC)
Max El. Az.
Max El.
End time (UTC)
End Az.
11 mins2025-01-15 11:53:57.533Z199.748° SSW2025-01-15 11:58:57.533Z118.411° SE44.167°2025-01-15 12:04:57.533Z32.492° NE
7 mins2025-01-15 13:42:57.533Z281.599° WNW2025-01-15 13:45:57.533Z318.067° NNW20.219°2025-01-15 13:49:57.533Z1.52° NNE
4 mins2025-01-15 19:12:57.533Z24.512° NE2025-01-15 19:13:57.533Z35.642° NE13.838°2025-01-15 19:16:57.533Z67.53° E
10 mins2025-01-15 20:56:57.533Z336.99° NNW2025-01-15 21:00:57.533Z24.484° NE42.734°2025-01-15 21:06:57.533Z143.324° SSE
5 mins2025-01-15 22:44:57.533Z278.647° WNW2025-01-15 22:46:57.533Z255.145° W15.636°2025-01-15 22:49:57.533Z222.26° SW
|